User: anonymous
Location: Unspecified
(0.0000°N, 0.0000°E)
Time: 11:22:14
(UTC+00:00)
Language:

Aussat K2 - Orbit

View from above orbital plane
View from above orbital plane
View from above satellite
View from above satellite

Ground track
Ground track

The orbit data is extracted from the following two-line orbital elements,

1 16275U 85109C   14292.92309198 -.00000061  00000-0  00000+0 0  5334
2 16275 014.7330 019.1287 0006389 178.2634 240.9901 00.99932183 95526
Epoch (UTC): 19 October 2014 22:09:15
Eccentricity: 0.0006389
inclination: 14.7330°
perigee height: 35854 km
apogee height: 35908 km
right ascension of ascending node: 19.1287°
argument of perigee: 178.2634°
revolutions per day: 0.99932183
mean anomaly at epoch: 240.9901°
orbit number at epoch: 9552

The dashed part of the orbit path shows where the satellite is in the earth's shadow,  

DLR